[[{"header":{"parameterUnit":"m.s-1","parameterCategory":1,"la1":30.2991,"la2":30.254,"lo1":-89.0895,"lo2":-89.0444,"dy":0.0017,"dx":0.0017,"nx":28,"ny":28,"refTime":"2025-06-05T03:00:00:Z","depth":0,"parameterNumber":2,"parameterNumberName":"U-component_of_WINDS"},"data":[0,0,0,0,0,0,0,0,0,0,0,0,0,0,0,0,0,0,0,0,0,0,0,0,0,0,0,0,0,0,0,0,0,0,0,0,0,0,0,0,0,0,0,0,0,0,0,0,0,0,0,0,0,0,0,0,0,0,1.4294,1.4294,0,1.4326,1.4327,1.4327,1.427,1.4268,1.4266,1.4264,1.4298,1.4301,1.4303,0,0,0,0,0,0,0,0,0,0,0,0,0,1.4181,1.4183,1.4294,1.4294,1.4294,1.4326,1.4327,1.4327,1.427,1.4268,1.4265,1.4263,1.4297,1.43,1.4304,0,0,0,0,0,0,0,0,0,0,0,0,0,1.4224,1.4184,1.4294,1.427,1.4268,1.4326,1.4327,1.4327,1.4271,1.4268,1.4265,1.4262,1.4296,1.43,1.4304,1.4387,0,0,1.4317,1.4318,0,0,0,0,0,0,0,0,1.4221,1.4228,1.4273,1.4272,1.427,1.4291,1.43,1.4348,1.4271,1.427,1.4264,1.4261,1.4298,1.4302,1.4314,1.4389,1.439,1.4317,1.4319,1.4321,1.4322,0,0,0,0,0,0,0,1.4218,1.4226,1.4307,1.4274,1.4272,1.4257,1.426,1.4308,1.43,1.427,1.4266,1.427,1.4297,1.4311,1.4315,1.4391,1.4317,1.432,1.4323,1.4325,1.4534,1.4537,0,0,0,0,0,0,1.4218,1.4224,1.4306,1.4308,1.4238,1.4262,1.4265,1.4287,1.4299,1.4298,1.4273,1.4267,1.4305,1.431,1.4316,1.4413,1.4321,1.4325,1.4327,1.4531,1.4534,1.4538,0,0,0,0,0,0,1.4216,1.4226,1.4304,1.4265,1.4273,1.4267,1.4292,1.4289,1.4303,1.4301,1.43,1.4288,1.4303,1.431,1.437,1.4413,1.4327,1.433,1.4527,1.4532,1.4536,1.4608,0,0,0,0,0,0,1.4213,1.4226,1.4257,1.4266,1.4276,1.4358,1.4295,1.4292,1.431,1.4304,1.4316,1.4315,1.4301,1.4364,1.4374,1.4417,1.4334,1.4523,1.4529,1.4535,1.4602,1.4614,1.4626,0,0,0,0,0,1.4209,1.4277,1.4259,1.4269,1.4315,1.436,1.4366,1.4349,1.4314,1.4345,1.4344,1.4315,1.4407,1.437,1.4381,1.4426,1.452,1.4527,1.4534,1.4596,1.4612,1.4625,0,0,0,0,0,0,1.4274,1.4277,1.4258,1.433,1.4345,1.4351,1.439,1.4366,1.4392,1.4385,1.4362,1.4366,1.4429,1.4434,1.4393,1.4507,1.4458,1.4467,1.4501,1.4516,1.4528,1.4525,1.4337,0,0,0,0,0,1.4296,1.4333,1.4334,1.4397,1.4406,1.4397,1.4416,1.4401,1.4416,1.4422,1.4425,1.4441,1.4473,1.4495,1.4525,1.4602,1.4603,1.4639,1.4651,1.466,1.4669,1.4708,1.4724,1.4561,1.4561,1.4561,0,0,1.4343,1.435,1.4374,1.441,1.442,1.4458,1.4403,1.4445,1.4473,1.4429,1.4485,1.4488,1.4504,1.4572,1.4603,1.4578,1.4714,1.4669,1.4677,1.468,1.4717,1.4733,1.4746,1.4566,1.4565,1.4564,0,0,1.4448,1.4457,1.451,1.4521,1.4537,1.453,1.4543,1.4552,1.4552,1.4608,1.4575,1.4608,1.4665,1.4677,1.4691,1.48,1.4773,1.481,1.4872,1.4911,1.4924,1.4935,1.4973,1.4986,1.4819,1.4819,1.4819,0,1.4504,1.456,1.454,1.4585,1.4601,1.4563,1.4616,1.4628,1.4653,1.4666,1.4638,1.4707,1.4715,1.4785,1.4812,1.4825,1.4838,1.4808,1.4924,1.4935,1.4945,1.498,1.4995,1.4823,1.4823,1.4822,1.4822,0,1.4627,1.4666,1.4707,1.4732,1.4753,1.4802,1.479,1.4814,1.4798,1.4794,1.4851,1.4859,1.489,1.4905,1.489,1.4973,1.4957,1.4927,1.4877,1.4965,1.4998,1.5011,1.4829,1.4828,1.4826,1.4825,0,0,1.4772,1.4785,1.4801,1.4811,1.4825,1.4855,1.4902,1.4932,1.4952,1.4971,1.5009,1.5058,1.5029,1.5045,1.5031,1.5066,1.5149,1.5031,1.5031,1.5051,1.524,1.5261,1.5277,1.5132,1.5135,1.5137,1.5238,0,1.4875,1.4955,1.4939,1.5018,1.5053,1.5018,1.5058,1.5072,1.507,1.5099,1.5097,1.5131,1.5092,1.5101,1.5134,1.5132,1.5187,1.5125,1.5167,1.5168,1.5162,1.5295,1.5318,1.5413,1.5251,1.5253,1.5255,0,1.5005,1.5028,1.511,1.5118,1.5132,1.5169,1.5194,1.5223,1.5238,1.5233,1.5251,1.523,1.5276,1.5227,1.5289,1.5248,1.5264,1.5266,1.5269,1.5271,1.5216,1.5299,1.5443,1.5456,1.5275,1.5273,1.5272,0,1.51,1.5152,1.5207,1.5218,1.5229,1.5256,1.5262,1.5273,1.5291,1.5314,1.5325,1.5353,1.5367,1.5389,1.5376,1.5341,1.5441,1.539,1.5438,1.5438,1.5459,1.5458,1.5606,1.5472,1.5472,1.5472,1.5472,0,1.5216,1.5267,1.525,1.5284,1.534,1.5322,1.5378,1.538,1.539,1.5423,1.5395,1.5427,1.5408,1.5439,1.5429,1.5482,1.5489,1.5486,1.5483,1.5488,1.5488,1.5497,1.549,1.5476,1.5475,1.5474,1.5473,0,1.5331,1.5322,1.538,1.5386,1.5389,1.543,1.5435,1.5466,1.5462,1.5505,1.5514,1.5507,1.5541,1.5531,1.5568,1.5561,1.5628,1.5617,1.5623,1.5619,1.5667,1.5662,1.5825,1.5844,1.57,1.5701,1.5702,0,1.5404,1.5443,1.5453,1.5473,1.5481,1.5514,1.5533,1.5516,1.5536,1.5555,1.5584,1.5616,1.564,1.5696,1.5695,1.5723,1.5711,1.5767,1.5715,1.5719,1.571,1.5707,1.571,1.5776,1.5778,1.5779,1.578,0,1.5535,1.5528,1.5556,1.5582,1.5605,1.5625,1.5642,1.5661,1.5645,1.5669,1.5704,1.5723,1.576,1.5792,1.5817,1.5823,1.5799,1.5797,1.5809,1.5814,1.5815,1.5813,1.5649,1.5793,1.5791,1.5791,1.579,1.5789,1.563,1.5662,1.5674,1.5705,1.5717,1.5733,1.5763,1.5762,1.5791,1.582,1.5809,1.5848,1.5861,1.5892,1.5901,1.5932,1.591,1.5928,1.5933,1.5937,1.5942,1.5812,1.5937,1.5936,1.5936,1.5936,1.5935,0,1.5757,1.5763,1.5792,1.5817,1.5842,1.5818,1.5836,1.5858,1.5893,1.5907,1.5931,1.597,1.6001,1.6002,1.603,1.6054,1.6044,1.6062,1.6059,1.606,1.596,1.5946,1.607,1.607,1.607,1.6069,1.6069,1.6069,1.5826,1.5878,1.5874,1.5931,1.5937,1.5975,1.5987,1.6002,1.6013,1.6058,1.6083,1.6083,1.6092,1.612,1.6147,1.6146,1.6157,1.6179,1.6175,1.6081,1.6068,1.6055,1.6041,1.6182,1.6183,1.6272,1.6273,1.6273]},{"header":{"parameterUnit":"m.s-1","parameterCategory":1,"la1":30.2991,"la2":30.254,"lo1":-89.0895,"lo2":-89.0444,"dy":0.0017,"dx":0.0017,"nx":28,"ny":28,"refTime":"2025-06-05T03:00:00:Z","depth":0,"parameterNumber":3,"parameterNumberName":"V-component_of_WINDS"},"data":[0,0,0,0,0,0,0,0,0,0,0,0,0,0,0,0,0,0,0,0,0,0,0,0,0,0,0,0,0,0,0,0,0,0,0,0,0,0,0,0,0,0,0,0,0,0,0,0,0,0,0,0,0,0,0,0,0,0,0.6895,0.6896,0,0.6992,0.6993,0.6995,0.6973,0.6971,0.6969,0.6967,0.707,0.7074,0.7078,0,0,0,0,0,0,0,0,0,0,0,0,0,0.6692,0.6695,0.6895,0.6896,0.6897,0.6992,0.6993,0.6995,0.6973,0.6971,0.6968,0.6966,0.7068,0.7073,0.7079,0,0,0,0,0,0,0,0,0,0,0,0,0,0.6784,0.6697,0.6894,0.6898,0.6899,0.6992,0.6994,0.6995,0.6973,0.6971,0.6968,0.6965,0.7066,0.7073,0.708,0.7176,0,0,0.71,0.7103,0,0,0,0,0,0,0,0,0.6778,0.6791,0.6896,0.6898,0.6899,0.6967,0.6959,0.7056,0.6974,0.6945,0.6967,0.6964,0.7038,0.7047,0.7071,0.7181,0.7186,0.7101,0.7105,0.7107,0.7109,0,0,0,0,0,0,0,0.6772,0.6787,0.6933,0.6897,0.6899,0.6895,0.6905,0.6978,0.7006,0.6947,0.6946,0.6958,0.7038,0.7065,0.7074,0.7187,0.71,0.7106,0.711,0.7113,0.7381,0.7384,0,0,0,0,0,0,0.6764,0.6782,0.693,0.6936,0.6831,0.6901,0.6912,0.6948,0.7005,0.7011,0.696,0.6956,0.7055,0.7066,0.7077,0.7195,0.7107,0.7114,0.7118,0.7378,0.7382,0.7386,0,0,0,0,0,0,0.676,0.6777,0.6926,0.6859,0.6877,0.6907,0.6948,0.6952,0.6978,0.7015,0.702,0.6982,0.7053,0.7068,0.7152,0.7198,0.7117,0.7123,0.7375,0.738,0.7384,0.743,0,0,0,0,0,0,0.6754,0.6776,0.6813,0.686,0.6881,0.6999,0.6951,0.6956,0.699,0.6986,0.7037,0.7042,0.7052,0.7142,0.7158,0.7206,0.7128,0.7371,0.7377,0.7382,0.7425,0.7436,0.7446,0,0,0,0,0,0.6747,0.6822,0.6815,0.6833,0.6927,0.7001,0.7014,0.7023,0.6993,0.7031,0.7054,0.7041,0.719,0.7151,0.7169,0.7219,0.7368,0.7375,0.7382,0.742,0.7434,0.7445,0,0,0,0,0,0,0.6781,0.6829,0.6821,0.6913,0.6953,0.6998,0.7045,0.7037,0.7087,0.7081,0.7091,0.7103,0.7188,0.7212,0.7167,0.7316,0.7275,0.7286,0.7298,0.7311,0.7321,0.7314,0.7134,0,0,0,0,0,0.6799,0.6855,0.6894,0.6972,0.6992,0.7015,0.7048,0.7051,0.7094,0.7111,0.714,0.7182,0.7239,0.7276,0.733,0.7428,0.7439,0.7471,0.7481,0.749,0.75,0.7554,0.7569,0.7409,0.7409,0.7408,0,0,0.6838,0.6871,0.6905,0.698,0.7011,0.7069,0.703,0.7093,0.7137,0.7121,0.7202,0.7225,0.7273,0.7364,0.7406,0.7386,0.7546,0.7499,0.7505,0.7511,0.7562,0.7578,0.7591,0.7413,0.7413,0.7412,0,0,0.6938,0.6968,0.7037,0.7069,0.7116,0.7131,0.7148,0.7193,0.7208,0.7289,0.7278,0.733,0.7427,0.7462,0.7492,0.7604,0.7594,0.7622,0.7677,0.7729,0.7742,0.7753,0.7794,0.7809,0.7631,0.7631,0.7631,0,0.698,0.7067,0.7073,0.7137,0.7171,0.7158,0.7228,0.7259,0.7322,0.7346,0.7323,0.7444,0.7475,0.7575,0.7602,0.7627,0.7646,0.7617,0.7739,0.7751,0.7761,0.7801,0.7816,0.7634,0.7634,0.7634,0.7633,0,0.7117,0.7177,0.7227,0.7287,0.7326,0.7393,0.741,0.7449,0.7448,0.7466,0.7549,0.7586,0.7647,0.767,0.7671,0.7771,0.7757,0.7736,0.7696,0.7779,0.7817,0.7832,0.7639,0.7638,0.7637,0.7636,0,0,0.7242,0.7305,0.7323,0.7351,0.7402,0.7449,0.7515,0.7574,0.7608,0.7651,0.7708,0.779,0.7771,0.7806,0.781,0.7856,0.7944,0.783,0.7831,0.7851,0.8057,0.8072,0.809,0.7937,0.794,0.7942,0.8053,0,0.7348,0.7464,0.7471,0.7577,0.7633,0.7621,0.7679,0.7717,0.7735,0.7786,0.7806,0.7864,0.7834,0.7855,0.79,0.7924,0.7985,0.7916,0.7991,0.7993,0.798,0.8109,0.8126,0.8229,0.8067,0.807,0.8072,0,0.7487,0.7534,0.7645,0.7688,0.7712,0.7764,0.7819,0.7867,0.791,0.792,0.7958,0.7956,0.8025,0.798,0.8076,0.8028,0.8059,0.8076,0.808,0.8088,0.8038,0.8122,0.8262,0.8278,0.8094,0.8092,0.8091,0,0.7568,0.766,0.7738,0.7761,0.7814,0.7851,0.7875,0.7915,0.795,0.7998,0.8021,0.8077,0.8107,0.8151,0.8164,0.813,0.826,0.8216,0.8271,0.8271,0.83,0.8298,0.8448,0.8318,0.8318,0.8317,0.8317,0,0.7686,0.7754,0.7775,0.7824,0.79,0.7908,0.7984,0.8006,0.8042,0.8095,0.8088,0.8138,0.8151,0.8204,0.8215,0.8293,0.8307,0.8317,0.832,0.8319,0.8318,0.834,0.8334,0.8321,0.832,0.832,0.8319,0,0.7791,0.7807,0.7892,0.7934,0.7946,0.8001,0.8038,0.8085,0.8101,0.8168,0.8184,0.821,0.8272,0.8289,0.8363,0.8371,0.8463,0.8458,0.8448,0.8448,0.8502,0.8498,0.8673,0.8697,0.855,0.8551,0.8553,0,0.7865,0.7917,0.7965,0.8,0.8025,0.8081,0.8116,0.8126,0.8163,0.8216,0.8257,0.8317,0.8367,0.8466,0.8492,0.8549,0.8546,0.8604,0.8555,0.8552,0.8548,0.8546,0.8551,0.8613,0.8615,0.8616,0.8617,0,0.7996,0.8001,0.8052,0.8107,0.8149,0.8192,0.8234,0.8262,0.8278,0.8321,0.8383,0.8421,0.8496,0.8557,0.8614,0.8639,0.8632,0.8632,0.8648,0.8648,0.8641,0.8647,0.8475,0.8628,0.8627,0.8626,0.8626,0.8625,0.8089,0.8135,0.8176,0.8233,0.8265,0.8304,0.835,0.8372,0.8424,0.8485,0.8488,0.8556,0.8598,0.8674,0.8702,0.8756,0.874,0.8762,0.8768,0.8774,0.8779,0.8631,0.8767,0.8767,0.8766,0.8766,0.8766,0,0.822,0.8246,0.8298,0.8356,0.8401,0.8388,0.8433,0.8472,0.8532,0.8571,0.862,0.8692,0.875,0.8781,0.8839,0.8877,0.8875,0.8892,0.889,0.8896,0.879,0.8771,0.8893,0.8893,0.8893,0.8893,0.8893,0.8893,0.8294,0.8372,0.8382,0.8476,0.8501,0.8567,0.8594,0.863,0.8661,0.8742,0.879,0.8809,0.8846,0.8907,0.896,0.8968,0.899,0.901,0.9015,0.8916,0.8903,0.8891,0.8873,0.9014,0.9014,0.9117,0.9118,0.9118]}]]